[[{"header":{"parameterUnit":"m.s-1","parameterCategory":1,"la1":30.2991,"la2":30.254,"lo1":-89.0895,"lo2":-89.0444,"dy":0.0017,"dx":0.0017,"nx":28,"ny":28,"refTime":"2023-09-08T03:00:00:Z","depth":0,"parameterNumber":2,"parameterNumberName":"U-component_of_WINDS"},"data":[0,0,0,0,0,0,0,0,0,0,0,0,0,0,0,0,0,0,0,0,0,0,0,0,0,0,0,0,0,0,0,0,0,0,0,0,0,0,0,0,0,0,0,0,0,0,0,0,0,0,0,0,0,0,0,0,0,0,1.1951,1.1951,0,1.2004,1.2005,1.2005,1.2019,1.2019,1.2018,1.2018,1.2077,1.2079,1.2081,0,0,0,0,0,0,0,0,0,0,0,0,0,1.1865,1.1867,1.195,1.1951,1.1952,1.2004,1.2005,1.2006,1.2019,1.2019,1.2018,1.2018,1.2076,1.2079,1.2081,0,0,0,0,0,0,0,0,0,0,0,0,0,1.1909,1.1867,1.195,1.1965,1.1967,1.2004,1.2005,1.2006,1.2019,1.2019,1.2018,1.2018,1.2076,1.2078,1.2081,1.2109,0,0,1.209,1.2091,0,0,0,0,0,0,0,0,1.1906,1.1912,1.1962,1.1964,1.1966,1.2004,1.1996,1.2041,1.2019,1.1999,1.2018,1.2017,1.2054,1.2058,1.207,1.2112,1.2115,1.209,1.2092,1.2093,1.2094,0,0,0,0,0,0,0,1.1903,1.191,1.1972,1.1963,1.1965,1.197,1.1976,1.2005,1.2029,1.2001,1.2002,1.2008,1.2055,1.2067,1.2071,1.2115,1.209,1.2093,1.2094,1.2096,1.2186,1.2186,0,0,0,0,0,0,1.1897,1.1907,1.197,1.1973,1.1934,1.1972,1.1979,1.1993,1.2029,1.2033,1.2008,1.2009,1.2062,1.2068,1.2073,1.2109,1.2093,1.2096,1.2097,1.2185,1.2186,1.2187,0,0,0,0,0,0,1.1895,1.1903,1.1968,1.1941,1.1949,1.1974,1.199,1.1994,1.2006,1.2034,1.2039,1.2016,1.2062,1.2069,1.21,1.2111,1.2097,1.21,1.2184,1.2185,1.2186,1.218,0,0,0,0,0,0,1.1893,1.1902,1.1911,1.1941,1.1951,1.1992,1.1991,1.1995,1.201,1.2011,1.2043,1.2047,1.2062,1.2096,1.2103,1.2115,1.2102,1.2183,1.2185,1.2186,1.218,1.2181,1.2182,0,0,0,0,0,1.189,1.1908,1.1912,1.1919,1.1963,1.1993,1.1999,1.2014,1.2011,1.2022,1.204,1.2046,1.2109,1.2099,1.2107,1.212,1.2183,1.2184,1.2186,1.2179,1.2181,1.2182,0,0,0,0,0,0,1.188,1.1912,1.1916,1.1944,1.1966,1.1995,1.2009,1.2015,1.2039,1.2039,1.2058,1.2065,1.2096,1.2111,1.2099,1.215,1.2146,1.2149,1.2138,1.214,1.2141,1.2137,1.2104,0,0,0,0,0,1.1881,1.1901,1.1929,1.1951,1.1962,1.1984,1.1997,1.2007,1.2031,1.204,1.2061,1.2085,1.211,1.2126,1.2151,1.2183,1.219,1.2196,1.2197,1.2198,1.22,1.222,1.2223,1.2192,1.2192,1.2192,0,0,1.1884,1.1904,1.1915,1.195,1.1968,1.199,1.1991,1.2014,1.2031,1.2044,1.2074,1.2091,1.2119,1.2151,1.2166,1.2165,1.2211,1.22,1.22,1.2202,1.2222,1.2224,1.2227,1.2193,1.2193,1.2192,0,0,1.1899,1.1916,1.1937,1.1955,1.1981,1.1996,1.2001,1.203,1.2041,1.2072,1.2082,1.2104,1.2147,1.2167,1.2182,1.2208,1.2215,1.2216,1.2222,1.2241,1.2244,1.2246,1.2256,1.2259,1.2219,1.2219,1.2219,0,1.1899,1.1932,1.1947,1.197,1.1986,1.1998,1.202,1.2037,1.2071,1.2082,1.2081,1.2135,1.2155,1.2192,1.2199,1.2211,1.2219,1.2212,1.2242,1.2244,1.2246,1.2256,1.226,1.2218,1.2218,1.2218,1.2218,0,1.1931,1.1953,1.1968,1.1999,1.2016,1.2039,1.2059,1.2076,1.2085,1.2101,1.2133,1.2157,1.2188,1.2198,1.2207,1.2237,1.2235,1.2237,1.2234,1.2249,1.2258,1.2262,1.2218,1.2218,1.2218,1.2218,0,0,1.194,1.1981,1.1986,1.2001,1.2032,1.2051,1.2075,1.2104,1.2118,1.2142,1.2163,1.22,1.2202,1.222,1.2233,1.2249,1.2269,1.225,1.2251,1.2252,1.2305,1.2302,1.2306,1.2274,1.2275,1.2276,1.2302,0,1.196,1.2001,1.2017,1.2052,1.2074,1.2087,1.2109,1.2131,1.2147,1.217,1.2188,1.2214,1.2215,1.2226,1.2243,1.2263,1.228,1.2261,1.2296,1.2297,1.2288,1.2311,1.2308,1.2332,1.2306,1.2307,1.2307,0,1.1988,1.2011,1.2047,1.2077,1.2087,1.2106,1.2134,1.2155,1.2182,1.2193,1.2213,1.2225,1.2253,1.2249,1.2289,1.2276,1.2291,1.2304,1.2305,1.2308,1.2302,1.2315,1.234,1.2343,1.2313,1.2312,1.2312,0,1.1991,1.2032,1.2059,1.2072,1.2107,1.212,1.2136,1.2162,1.2179,1.2205,1.2216,1.2245,1.2261,1.2285,1.2305,1.23,1.2343,1.234,1.2354,1.2353,1.2362,1.2361,1.2389,1.2372,1.2372,1.2372,1.2372,0,1.2011,1.2033,1.2061,1.2078,1.2104,1.2123,1.2149,1.2166,1.2189,1.2211,1.2225,1.2246,1.2271,1.2296,1.2312,1.2343,1.2351,1.2361,1.2365,1.2359,1.2358,1.2369,1.2368,1.2373,1.2373,1.2373,1.2373,0,1.2018,1.2038,1.2069,1.21,1.2109,1.2127,1.2154,1.2172,1.219,1.2217,1.2225,1.2252,1.2282,1.2305,1.2344,1.2355,1.2388,1.2392,1.2378,1.238,1.2392,1.2391,1.2429,1.2435,1.2414,1.2414,1.2414,0,1.2029,1.2046,1.208,1.2095,1.211,1.2134,1.2151,1.2172,1.219,1.2223,1.2237,1.2268,1.2293,1.234,1.2365,1.2395,1.2401,1.2412,1.2405,1.2399,1.2401,1.2399,1.2402,1.2412,1.2412,1.2413,1.2413,0,1.2047,1.2056,1.2079,1.2107,1.2127,1.215,1.2173,1.2185,1.2211,1.223,1.226,1.228,1.232,1.235,1.2383,1.2402,1.2412,1.2415,1.242,1.2414,1.2405,1.241,1.238,1.2414,1.2413,1.2413,1.2413,1.2413,1.2056,1.2073,1.2099,1.2125,1.2145,1.2167,1.2185,1.2205,1.223,1.2263,1.2274,1.2306,1.2335,1.238,1.2399,1.2425,1.2425,1.2432,1.2434,1.2435,1.2434,1.2401,1.2431,1.2431,1.2431,1.2431,1.2431,0,1.2074,1.2092,1.2116,1.2148,1.217,1.2177,1.2204,1.2221,1.2248,1.2273,1.2298,1.2334,1.2364,1.2391,1.2424,1.2439,1.2445,1.2447,1.2446,1.245,1.2432,1.2425,1.2442,1.2442,1.2442,1.2442,1.2442,1.2442,1.2086,1.2114,1.2127,1.2166,1.2185,1.2214,1.2229,1.225,1.2271,1.2309,1.2334,1.2351,1.2378,1.2413,1.2442,1.2449,1.246,1.2461,1.247,1.2453,1.2451,1.245,1.2443,1.2464,1.2464,1.2486,1.2486,1.2486]},{"header":{"parameterUnit":"m.s-1","parameterCategory":1,"la1":30.2991,"la2":30.254,"lo1":-89.0895,"lo2":-89.0444,"dy":0.0017,"dx":0.0017,"nx":28,"ny":28,"refTime":"2023-09-08T03:00:00:Z","depth":0,"parameterNumber":3,"parameterNumberName":"V-component_of_WINDS"},"data":[0,0,0,0,0,0,0,0,0,0,0,0,0,0,0,0,0,0,0,0,0,0,0,0,0,0,0,0,0,0,0,0,0,0,0,0,0,0,0,0,0,0,0,0,0,0,0,0,0,0,0,0,0,0,0,0,0,0,-2.6453,-2.6453,0,-2.6461,-2.6461,-2.6461,-2.6484,-2.6484,-2.6485,-2.6486,-2.6488,-2.6487,-2.6487,0,0,0,0,0,0,0,0,0,0,0,0,0,-2.6456,-2.6456,-2.6453,-2.6453,-2.6453,-2.6461,-2.6461,-2.6461,-2.6484,-2.6485,-2.6485,-2.6486,-2.6488,-2.6487,-2.6487,0,0,0,0,0,0,0,0,0,0,0,0,0,-2.6458,-2.6456,-2.6453,-2.6466,-2.6467,-2.6461,-2.6461,-2.6461,-2.6484,-2.6485,-2.6485,-2.6486,-2.6488,-2.6487,-2.6487,-2.6467,0,0,-2.6485,-2.6484,0,0,0,0,0,0,0,0,-2.6458,-2.6458,-2.6464,-2.6465,-2.6466,-2.6472,-2.6463,-2.6463,-2.6484,-2.6477,-2.6486,-2.6486,-2.6482,-2.6481,-2.6481,-2.6467,-2.6467,-2.6485,-2.6484,-2.6484,-2.6484,0,0,0,0,0,0,0,-2.6458,-2.6458,-2.6456,-2.6464,-2.6465,-2.647,-2.6472,-2.6463,-2.6475,-2.6478,-2.648,-2.648,-2.6482,-2.6482,-2.6481,-2.6467,-2.6485,-2.6484,-2.6484,-2.6483,-2.6442,-2.6441,0,0,0,0,0,0,-2.6456,-2.6458,-2.6456,-2.6456,-2.6464,-2.647,-2.6471,-2.6469,-2.6475,-2.6477,-2.648,-2.6481,-2.6482,-2.6482,-2.6481,-2.6461,-2.6484,-2.6483,-2.6483,-2.6443,-2.6442,-2.6441,0,0,0,0,0,0,-2.6456,-2.6456,-2.6455,-2.6457,-2.6458,-2.6469,-2.6467,-2.6469,-2.6469,-2.6476,-2.6478,-2.6477,-2.6483,-2.6482,-2.6472,-2.6462,-2.6483,-2.6482,-2.6443,-2.6442,-2.6441,-2.6419,0,0,0,0,0,0,-2.6456,-2.6456,-2.6449,-2.6457,-2.6458,-2.6446,-2.6466,-2.6469,-2.6468,-2.647,-2.6474,-2.6476,-2.6483,-2.6473,-2.6471,-2.6461,-2.6482,-2.6444,-2.6443,-2.6442,-2.6421,-2.6418,-2.6415,0,0,0,0,0,-2.6456,-2.644,-2.6448,-2.6448,-2.6449,-2.6445,-2.6446,-2.6457,-2.6467,-2.646,-2.6466,-2.6475,-2.6463,-2.6471,-2.647,-2.6459,-2.6445,-2.6443,-2.6442,-2.6422,-2.6418,-2.6415,0,0,0,0,0,0,-2.6426,-2.6441,-2.645,-2.6436,-2.644,-2.6449,-2.644,-2.6451,-2.645,-2.6452,-2.6464,-2.6465,-2.6453,-2.6455,-2.6464,-2.6443,-2.6456,-2.6454,-2.6442,-2.6438,-2.6435,-2.6435,-2.6481,0,0,0,0,0,-2.6419,-2.6416,-2.6428,-2.6415,-2.6417,-2.6429,-2.6427,-2.6436,-2.6439,-2.644,-2.6445,-2.6447,-2.6444,-2.6441,-2.6438,-2.6422,-2.6424,-2.6415,-2.6411,-2.6409,-2.6407,-2.6402,-2.6398,-2.6436,-2.6436,-2.6436,0,0,-2.6402,-2.641,-2.6406,-2.6409,-2.6413,-2.641,-2.6429,-2.6423,-2.6421,-2.6438,-2.643,-2.6434,-2.6437,-2.6425,-2.6419,-2.6426,-2.6398,-2.6407,-2.6405,-2.6404,-2.64,-2.6396,-2.6393,-2.6435,-2.6435,-2.6435,0,0,-2.6369,-2.6374,-2.6366,-2.637,-2.6377,-2.6386,-2.6384,-2.6393,-2.6398,-2.639,-2.6404,-2.6401,-2.6395,-2.6398,-2.6398,-2.6373,-2.6382,-2.6371,-2.6354,-2.6349,-2.6346,-2.6344,-2.6337,-2.6334,-2.6369,-2.6369,-2.6369,0,-2.6347,-2.6343,-2.6359,-2.6354,-2.6356,-2.6376,-2.6367,-2.637,-2.6375,-2.6375,-2.6384,-2.6379,-2.6382,-2.6372,-2.6367,-2.6366,-2.6365,-2.637,-2.6346,-2.6344,-2.6341,-2.6334,-2.6331,-2.6368,-2.6368,-2.6368,-2.6368,0,-2.6317,-2.6314,-2.6306,-2.6314,-2.6315,-2.6308,-2.6323,-2.6322,-2.6332,-2.634,-2.6334,-2.6339,-2.6339,-2.6338,-2.6345,-2.633,-2.6334,-2.6344,-2.6357,-2.6336,-2.633,-2.6327,-2.6366,-2.6367,-2.6367,-2.6367,0,0,-2.6262,-2.6283,-2.628,-2.6286,-2.6297,-2.6295,-2.629,-2.6294,-2.6293,-2.6297,-2.6294,-2.6291,-2.6302,-2.6302,-2.6311,-2.6306,-2.6289,-2.6317,-2.6317,-2.6313,-2.6275,-2.6268,-2.6265,-2.6296,-2.6296,-2.6295,-2.6275,0,-2.6233,-2.6228,-2.6244,-2.6234,-2.6233,-2.6254,-2.625,-2.6257,-2.6265,-2.6266,-2.6274,-2.6273,-2.6286,-2.6287,-2.6284,-2.6292,-2.6282,-2.6293,-2.6293,-2.6293,-2.6292,-2.6261,-2.6253,-2.6233,-2.6273,-2.6272,-2.6272,0,-2.6197,-2.6204,-2.6195,-2.6211,-2.6211,-2.6208,-2.6214,-2.6214,-2.6223,-2.623,-2.6233,-2.6245,-2.6242,-2.6256,-2.6253,-2.6261,-2.6262,-2.6266,-2.6266,-2.6266,-2.6281,-2.6261,-2.6227,-2.6225,-2.6268,-2.6268,-2.6269,0,-2.6161,-2.6167,-2.6163,-2.6167,-2.6185,-2.6183,-2.619,-2.62,-2.6202,-2.6208,-2.621,-2.6214,-2.6216,-2.6219,-2.6232,-2.6241,-2.6228,-2.6242,-2.6234,-2.6233,-2.6229,-2.6229,-2.6195,-2.6229,-2.6229,-2.6229,-2.6229,0,-2.6127,-2.6121,-2.6148,-2.6146,-2.6141,-2.616,-2.6154,-2.6163,-2.6172,-2.6172,-2.619,-2.6189,-2.6207,-2.6208,-2.6218,-2.6216,-2.6216,-2.6221,-2.6224,-2.622,-2.6219,-2.622,-2.6222,-2.6228,-2.6229,-2.6229,-2.6229,0,-2.6085,-2.6102,-2.6101,-2.612,-2.6125,-2.612,-2.6136,-2.6135,-2.6147,-2.6147,-2.6148,-2.6165,-2.6168,-2.6183,-2.6188,-2.6195,-2.6189,-2.6194,-2.6187,-2.6188,-2.618,-2.6181,-2.6146,-2.6143,-2.6178,-2.6177,-2.6177,0,-2.6062,-2.6059,-2.6079,-2.6082,-2.609,-2.6093,-2.6097,-2.6116,-2.612,-2.6132,-2.613,-2.6136,-2.6141,-2.6145,-2.6157,-2.6163,-2.6169,-2.6156,-2.6169,-2.6167,-2.617,-2.617,-2.6171,-2.6153,-2.6153,-2.6152,-2.6152,0,-2.602,-2.6031,-2.6037,-2.6047,-2.6052,-2.606,-2.6069,-2.607,-2.6092,-2.6095,-2.6101,-2.6105,-2.6114,-2.6119,-2.6127,-2.6134,-2.6147,-2.6148,-2.6147,-2.6142,-2.6139,-2.6143,-2.618,-2.6148,-2.6149,-2.6149,-2.6149,-2.6149,-2.5988,-2.5988,-2.6004,-2.6011,-2.6021,-2.603,-2.6031,-2.6045,-2.605,-2.606,-2.6071,-2.6076,-2.6088,-2.6101,-2.6108,-2.6111,-2.6118,-2.6115,-2.6115,-2.6114,-2.6113,-2.6139,-2.6113,-2.6113,-2.6113,-2.6113,-2.6113,0,-2.5949,-2.5961,-2.5968,-2.5982,-2.5989,-2.6004,-2.6015,-2.6019,-2.6024,-2.6035,-2.6042,-2.605,-2.6056,-2.6071,-2.6079,-2.608,-2.6086,-2.6081,-2.6081,-2.6083,-2.6105,-2.6107,-2.6076,-2.6076,-2.6076,-2.6076,-2.6076,-2.6076,-2.5929,-2.593,-2.5943,-2.595,-2.5962,-2.5969,-2.5975,-2.5984,-2.5994,-2.6003,-2.6009,-2.602,-2.6034,-2.6044,-2.6051,-2.6055,-2.6058,-2.6051,-2.6057,-2.6078,-2.6081,-2.6084,-2.6086,-2.6051,-2.6051,-2.6035,-2.6035,-2.6035]}]]